Regional Weather Roundup
Issued by NWS

Home | Current Version | Previous Version | Graphics & Text | Print | Product List | Glossary Off
Versions: 1 2 3 4 5 6 7 8 9 10 11 12 13 14 15 16 17 18 19 20 21 22 23 24 25 26 27 28 29 30 31 32 33 34 35 36 37 38 39 40 41 42 43 44 45 46 47 48 49 50

785
ASUS43 KMKX 230711
RWRWI

WISCONSIN REGIONAL WEATHER ROUNDUP
NATIONAL WEATHER SERVICE MILWAUKEE/SULLIVAN WI
100 AM CST THU FEB 23 2017

NOTE: "FAIR" INDICATES FEW OR NO CLOUDS BELOW 12,000 FEET WITH NO
SIGNIFICANT WEATHER AND/OR OBSTRUCTIONS TO VISIBILITY.

WIZ001-002-006>008-014>016-023>028-230800-
NORTHWEST WISCONSIN

CITY           SKY/WX    TMP DP  RH WIND       PRES   REMARKS
SUPERIOR ARPT  CLOUDY    33  30  88 N13G18    29.82R WCI  24
ASHLAND        CLOUDY    33  31  92 N9        29.78R WCI  25
HAYWARD        CLOUDY    34  31  88 N5        29.76R WCI  30
SIREN          CLOUDY    34  32  94 N9        29.81R WCI  27
CUMBERLAND     CLOUDY    34  32  93 N14G21    29.76R WCI  24
RICE LAKE      CLOUDY    36  33  90 NW13G21   29.77R WCI  27
CHETEK         CLOUDY    36  33  89 NW6       29.75R WCI  31
LADYSMITH      MOCLDY    35  32  88 N14G20    29.73R WCI  26
EAU CLAIRE     CLOUDY    39  34  82 N12       29.72R WCI  32
MENOMONIE      CLOUDY    39  34  81 NW12      29.75R WCI  32
NEW RICHMOND   CLOUDY    35  33  94 N16       29.80R WCI  25
OSCEOLA        CLOUDY    36  36 100 NW8       29.84R WCI  29
$$

WIZ003>005-009-010-017-018-230800-
NORTH CENTRAL WISCONSIN

CITY           SKY/WX    TMP DP  RH WIND       PRES   REMARKS
MANITOWISH WTR FLURRIES  32  32 100 N8G16     29.68R WCI  25
ARBOR VITAE    LGT SNOW  34  33  96 N13         N/A  WCI  25
WOODRUFF       LGT SNOW  34  33  96 N13         N/A  WCI  25
RHINELANDER    CLOUDY    35  34  96 N8        29.63R WCI  29
EAGLE RIVER    FLURRIES  32  32 100 N9        29.64R WCI  25
LAND O LAKES   LGT SNOW  32  32 100 N7        29.67R VSB 1   WCI  26
PHILLIPS       FLURRIES  33  32  99 N7        29.68R WCI  26
TOMAHAWK       CLOUDY    35  34  96 N8        29.65R WCI  28
MEDFORD        CLOUDY    37  35  94 N13       29.63R WCI  28
MERRILL        NOT AVBL
$$

WIZ029-030-035-036-043>047-230800-
CENTRAL WISCONSIN

CITY           SKY/WX    TMP DP  RH WIND       PRES   REMARKS
WAUSAU         CLOUDY    40  39  97 N8        29.59R WCI  34
MOSINEE        CLOUDY    41  39  93 NW13      29.60R
MARSHFIELD     CLOUDY    42  39  89 NW14      29.62R
STEVENS POINT  MOCLDY    41  37  88 W7        29.60R
WAUPACA        CLEAR     44  37  78 W9        29.59R
WAUTOMA        CLEAR     46  41  82 W10         N/A
WISC RAPIDS    MOCLDY    44  41  89 NW10      29.63R
CAMP DOUGLAS   MOCLDY    46  42  85 NW14G22   29.65R
$$

WIZ011>013-019>022-031-037>040-048>050-230800-
NORTHEAST WISCONSIN

CITY           SKY/WX    TMP DP  RH WIND       PRES   REMARKS
ANTIGO         CLOUDY    38  38  99 N15       29.60R WCI  30
SHAWANO        CLEAR     39  36  91 CALM      29.57S
OCONTO         CLOUDY    40  38  95 N6        29.57R
STURGEON BAY   FOG       37  37 100 N9        29.57R VSB 1   WCI  30
GREEN BAY      CLEAR     39  38  96 N3        29.57R
MANITOWOC      PTCLDY    41  40  96 NW7       29.56R FOG
APPLETON       CLEAR     36  36 100 W6        29.56R WCI  31
CLINTONVILLE   PTCLDY    34  32  93 W3        29.58R
OSHKOSH        CLEAR     47  37  68 W8        29.58R
$$

WIZ032>034-041-042-053>061-230800-
SOUTHWEST WISCONSIN

CITY           SKY/WX    TMP DP  RH WIND       PRES   REMARKS
LA CROSSE      MOCLDY    47  40  76 NW15      29.71R
SPARTA         CLOUDY    47  43  87 W9        29.69R
VIROQUA        CLOUDY    46  42  88 NW15G21   29.70R
BOSCOBEL       CLOUDY    50  43  77 W6        29.71R
PRAIRIE DU CHI CLOUDY    46  40  80 NW16      29.73R
PLATTEVILLE    CLEAR     46  45  95 W9        29.70R
$$

WIZ056-057-062-063-064-067-068-230800-
SOUTH CENTRAL WISCONSIN

CITY           SKY/WX    TMP DP  RH WIND       PRES   REMARKS
REEDSBURG      CLEAR     46  43  88 W6        29.65R
BARABOO/DELLS  CLEAR     47  41  79 W10       29.64R
LONE ROCK      CLEAR     47  42  83 W13       29.68R
MINERAL POINT  CLEAR     46  45  93 W9        29.68R
MADISON        CLEAR     49  42  77 MISG      29.63R
MIDDLETON      CLEAR     50  44  79 W10G16    29.65R
WATERTOWN      CLEAR     48  44  84 W6        29.62R
MONROE         CLEAR     48  43  81 W13G20    29.66R
JANESVILLE     CLEAR     50  43  76 W3        29.65R
$$

WIZ051-052-058>065-066-070>072-230800-
SOUTHEAST WISCONSIN

CITY           SKY/WX    TMP DP  RH WIND       PRES   REMARKS
MILWAUKEE      CLEAR     57  45  64 W13       29.60R
WAUKESHA       CLEAR     50  43  76 W12       29.62R
MILWAUKEE/TIMM CLEAR     52  41  66 W9        29.61R
RACINE         PTCLDY    55  47  74 W12       29.60R
KENOSHA        CLEAR     53  48  83 W14       29.60R
FOND DU LAC    CLEAR     47  37  68 W9        29.60R
SHEBOYGAN      CLEAR     50  41  71 W10       29.56R
WEST BEND      CLEAR     52  41  66 W10G18    29.59R
JUNEAU         CLEAR     48  41  75 W8        29.63R
$$

LSZ147-162-230800-
LAKE SUPERIOR

STATION/POSITION TIME  TEMP    WIND        PRES    WAVE
                       AIR SEA DIR/SP/G            HT/PER
                 (UTC) (F)     (DEG/KT/KT) (MB)    (FT/S)
DEVILS ISLAND    0700   32      30/  7/  7 1009.4R
PORT WING        0640   32      CALM  /  1 1009.1R
SAXON HARBOR     0640   33      10/ 12/ 14 1007.8R
$$

LMZ867-665-643>646-230800-
LAKE MICHIGAN

STATION/POSITION TIME  TEMP    WIND        PRES    WAVE
                       AIR SEA DIR/SP/G            HT/PER
                 (UTC) (F)     (DEG/KT/KT) (MB)    (FT/S)
CHAMBERS ISLAND  0640   35     310/  6/  9 1001.0R
NORTHPORT PIER   0640   35     310/ 10/ 12 1001.4R
SISTER BAY       0635   36     350/ 17/ 19   N/A
KEWAUNEE LAKESHO 0648   38     320/  8/ 16 1000.6R
SHEBOYGAN LAKESH 0700   53     270/ 12/ 15 1000.9R
PORT WASHINGTON  0630   56     270/  8/ 14 1002.0R
MILWAUKEE LAKESH 0650   56     290/ 14/ 17   N/A
KENOSHA   LAKESH 0700   55     270/ 12/ 17 1002.7
$$

TC  - TEMPERATURE IN CELSIUS
VSB - VISIBILITY IN STATUTE MILES
WCI - WIND CHILL INDEX
HX  - HEAT INDEX





USA.gov is the U.S. government's official web portal to all federal, state and local government web resources and services.